Weather History for China Lake, CA

Change the Weather History Date:

Wednesday, December 19, 2012

  Actual Average Record
Temperature  
Mean Temperature 36 °F -  
Max Temperature 48 °F 54 °F 63 °F (2004)
Min Temperature 21 °F 29 °F 21 °F (2000)
Degree Days  
Heating Degree Days 29    
Moisture  
Dew Point 2 °F    
Average Humidity 26    
Maximum Humidity 40    
Minimum Humidity 13    
Precipitation  
Precipitation 0.00 in - - ()
Sea Level Pressure  
Sea Level Pressure 30.27 in    
Wind  
Wind Speed 8 mph (WSW)    
Max Wind Speed 17 mph    
Max Gust Speed -    
Visibility 10 miles    
Events      
Averages and records for this station are not official NWS values.
T = Trace of Precipitation, MM = Missing Value Source: NWS Daily Summary

Daily Weather History Graph

Daily Weather History Graph

Search for Another Location

Airport:

Trip Planner

Search our weather history database for the weather conditions in past years. The results will help you decide how hot, cold, wet, or windy it might be!

Date:

Astronomy

Dec. 19, 2012 Rise Set
Actual Time 6:55 AM PST 4:40 PM PST
Civil Twilight 6:27 AM PST 5:08 PM PST
Nautical Twilight 5:55 AM PST 5:40 PM PST
Astronomical Twilight 5:24 AM PST 6:12 PM PST
Moon 11:20 AM PST (12/19) 11:58 PM PST (12/19)
Length of Visible Light 10h 41m
Length of Day
9h 44m
Waxing Crescent, 46% of the Moon is Illuminated
Dec 19
Waxing Crescent
Dec 19
First Quarter
Dec 28
Full
Jan 4
Last Quarter
Jan 11
New

Hourly Weather History & Observations

Time (PST) Temp. Windchill Dew Point Humidity Pressure Visibility Wind Dir Wind Speed Gust Speed Precip Events Conditions
12:56 AM 35.1 °F 28.6 °F 10.9 °F 37% 30.01 in 10.0 mi West 8.1 mph - N/A   Clear
1:56 AM 34.0 °F 26.0 °F 12.0 °F 40% 30.05 in 10.0 mi WNW 10.4 mph - N/A   Clear
2:56 AM 35.1 °F 28.6 °F 8.1 °F 33% 30.08 in 10.0 mi NNW 8.1 mph - N/A   Clear
3:56 AM 35.1 °F 24.8 °F 10.0 °F 35% 30.11 in 10.0 mi NW 17.3 mph - N/A   Clear
4:56 AM 33.1 °F 24.9 °F 9.0 °F 37% 30.14 in 10.0 mi NW 10.4 mph - N/A   Clear
5:56 AM 30.0 °F 22.4 °F 8.1 °F 40% 30.20 in 10.0 mi NW 8.1 mph - N/A   Clear
6:56 AM 28.0 °F 19.3 °F 6.1 °F 39% 30.25 in 10.0 mi WNW 9.2 mph - N/A   Clear
7:56 AM 34.0 °F 26.6 °F 7.0 °F 32% 30.26 in 10.0 mi WNW 9.2 mph - N/A   Clear
8:56 AM 39.9 °F 35.1 °F 6.1 °F 25% 30.29 in 10.0 mi NW 6.9 mph - N/A   Clear
9:56 AM 44.1 °F 42.5 °F 3.0 °F 18% 30.29 in 10.0 mi Variable 3.5 mph - N/A   Clear
10:56 AM 45.0 °F 41.8 °F 1.9 °F 17% 30.28 in 10.0 mi Variable 5.8 mph - N/A   Clear
11:56 AM 46.0 °F 42.5 °F -0.0 °F 15% 30.27 in 10.0 mi East 6.9 mph - N/A   Clear
12:56 PM 46.0 °F 41.0 °F 1.9 °F 16% 30.27 in 10.0 mi SE 10.4 mph - N/A   Clear
1:56 PM 46.9 °F - -0.0 °F 14% 30.27 in 10.0 mi ESE 4.6 mph - N/A   Clear
2:56 PM 48.0 °F - -2.0 °F 13% 30.28 in 10.0 mi East 6.9 mph - N/A   Clear
3:56 PM 46.9 °F - -0.9 °F 14% 30.29 in 10.0 mi SE 6.9 mph - N/A   Clear
4:56 PM 41.0 °F - -2.0 °F 16% 30.31 in 10.0 mi Calm Calm - N/A   Clear
5:56 PM 35.1 °F 31.0 °F -2.9 °F 20% 30.34 in 10.0 mi SSE 4.6 mph - N/A   Clear
6:56 PM 32.0 °F 25.6 °F -2.9 °F 22% 30.37 in 10.0 mi SSW 6.9 mph - N/A   Clear
7:56 PM 28.9 °F - -4.0 °F 24% 30.38 in 10.0 mi Calm Calm - N/A   Clear
8:56 PM 26.1 °F 21.9 °F -5.1 °F 26% 30.39 in 10.0 mi SSW 3.5 mph - N/A   Clear
9:56 PM 25.0 °F 16.3 °F -5.1 °F 27% 30.41 in 10.0 mi SSW 8.1 mph - N/A   Clear
10:56 PM 24.1 °F - -6.0 °F 27% 30.42 in 10.0 mi Calm Calm - N/A   Clear
11:56 PM 21.0 °F 12.4 °F -5.1 °F 32% 30.43 in 10.0 mi SSW 6.9 mph - N/A   Clear